Precipitable_Water
0.97 1.03 1.11 1.22 1.26 1.19 1.17 1.19 1.22 1.26 1.28 1.33 1.32 1.28 1.28 1.30 1.30 1.26 1.24 1.20 1.21 1.19 1.18 1.20 1.25 1.26 1.25 1.26 1.24 1.22 1.24 1.25 1.28 1.26 1.20 1.11 1.08 1.06 1.03 1.01 0.99 1.04 1.09 1.12 1.18 1.22 1.19 1.17 1.20 1.25 1.32 1.32 1.34 1.36 1.36 1.35 1.31 1.28 1.24 1.15 1.08 1.06 1.00 0.89 0.80 0.78 0.78 0.84 0.83 0.77 0.78 0.74 0.68 0.61 0.55 0.49 0.44 0.40 0.50 0.55 0.56 0.53 0.51 0.46 0.39
0.92 0.97 1.08 1.18 1.23 1.22 1.21 1.17 1.19 1.25 1.26 1.30 1.31 1.32 1.32 1.32 1.31 1.30 1.24 1.24 1.24 1.21 1.21 1.24 1.25 1.26 1.23 1.23 1.21 1.19 1.19 1.20 1.24 1.23 1.14 1.07 1.05 1.05 0.98 0.94 0.96 1.00 1.02 1.04 1.08 1.11 1.14 1.12 1.17 1.23 1.30 1.29 1.30 1.32 1.33 1.29 1.25 1.22 1.19 1.09 1.03 0.98 0.96 0.86 0.84 0.77 0.74 0.80 0.81 0.80 0.77 0.76 0.67 0.62 0.52 0.49 0.47 0.43 0.46 0.50 0.52 0.51 0.50 0.46 0.40
0.96 0.98 1.04 1.12 1.16 1.19 1.21 1.17 1.16 1.22 1.25 1.28 1.30 1.33 1.36 1.36 1.35 1.31 1.28 1.26 1.27 1.25 1.25 1.24 1.24 1.24 1.21 1.20 1.18 1.16 1.14 1.16 1.23 1.19 1.12 1.04 1.01 0.99 0.95 0.93 0.95 0.99 0.99 1.00 1.02 1.03 1.04 1.09 1.16 1.21 1.24 1.22 1.24 1.27 1.31 1.26 1.22 1.16 1.11 1.03 0.93 0.90 0.92 0.93 0.90 0.80 0.77 0.78 0.81 0.76 0.74 0.73 0.68 0.62 0.54 0.51 0.49 0.46 0.43 0.49 0.48 0.48 0.46 0.46 0.45
1.06 1.01 1.03 1.06 1.11 1.14 1.14 1.16 1.13 1.17 1.21 1.25 1.26 1.32 1.37 1.36 1.36 1.35 1.33 1.31 1.26 1.25 1.27 1.24 1.24 1.21 1.16 1.16 1.14 1.12 1.11 1.14 1.19 1.17 1.09 1.02 0.99 0.96 0.94 0.95 1.00 1.03 1.02 1.00 1.01 1.00 1.00 1.05 1.11 1.15 1.16 1.13 1.13 1.17 1.21 1.16 1.10 1.04 0.98 0.92 0.90 0.90 0.94 0.95 0.97 0.86 0.82 0.78 0.78 0.75 0.73 0.69 0.68 0.64 0.58 0.57 0.52 0.47 0.40 0.52 0.54 0.49 0.43 0.47 0.54
1.10 1.03 0.98 0.97 1.02 1.04 1.06 1.12 1.11 1.13 1.18 1.23 1.24 1.28 1.32 1.34 1.36 1.37 1.36 1.29 1.28 1.24 1.22 1.24 1.21 1.17 1.13 1.12 1.10 1.07 1.07 1.11 1.13 1.12 1.08 1.01 0.99 0.95 0.92 0.94 0.99 1.02 1.02 1.02 1.01 0.97 0.98 1.00 1.02 1.04 1.04 1.01 0.97 0.99 0.98 0.94 0.94 0.91 0.87 0.88 0.88 0.91 0.96 0.97 0.93 0.90 0.83 0.77 0.76 0.75 0.72 0.70 0.68 0.62 0.60 0.57 0.52 0.49 0.45 0.47 0.55 0.49 0.47 0.52 0.59
1.12 1.04 0.95 0.89 0.92 0.95 1.00 1.05 1.08 1.09 1.14 1.19 1.23 1.27 1.30 1.33 1.34 1.38 1.37 1.28 1.25 1.24 1.22 1.20 1.18 1.15 1.13 1.12 1.09 1.05 1.05 1.08 1.10 1.09 1.03 1.00 0.99 0.95 0.93 0.95 0.99 1.01 1.01 1.03 1.02 0.97 0.95 0.93 0.95 0.94 0.91 0.88 0.87 0.87 0.89 0.87 0.88 0.88 0.86 0.87 0.90 0.93 0.94 0.93 0.89 0.85 0.82 0.78 0.75 0.70 0.68 0.64 0.63 0.59 0.59 0.59 0.54 0.49 0.47 0.48 0.55 0.54 0.52 0.50 0.50
1.10 1.03 1.01 0.91 0.88 0.92 0.93 0.97 1.03 1.06 1.11 1.16 1.22 1.26 1.28 1.31 1.32 1.34 1.34 1.29 1.22 1.20 1.22 1.19 1.17 1.15 1.13 1.11 1.07 1.03 1.02 1.06 1.09 1.05 1.00 0.99 0.97 0.95 0.93 0.96 0.98 1.02 1.00 0.98 0.99 0.98 0.95 0.94 0.94 0.93 0.89 0.85 0.85 0.84 0.84 0.86 0.87 0.88 0.90 0.90 0.95 0.94 0.90 0.88 0.85 0.81 0.78 0.74 0.72 0.69 0.65 0.66 0.65 0.56 0.56 0.61 0.59 0.55 0.50 0.44 0.50 0.52 0.53 0.51 0.46
1.01 1.00 1.02 0.99 0.90 0.88 0.90 0.92 0.97 1.04 1.10 1.15 1.18 1.23 1.27 1.30 1.31 1.34 1.31 1.23 1.20 1.20 1.19 1.16 1.16 1.17 1.13 1.10 1.07 1.03 1.01 1.04 1.07 1.03 0.99 0.98 0.96 0.93 0.93 0.94 0.95 0.96 0.95 0.96 0.97 0.96 0.91 0.91 0.90 0.89 0.89 0.85 0.85 0.85 0.84 0.84 0.86 0.85 0.87 0.87 0.88 0.86 0.85 0.84 0.80 0.77 0.75 0.71 0.67 0.66 0.65 0.64 0.65 0.60 0.59 0.61 0.57 0.55 0.53 0.46 0.48 0.48 0.47 0.51 0.49
0.95 0.97 1.04 1.03 0.97 0.92 0.90 0.93 0.99 1.04 1.08 1.11 1.15 1.19 1.23 1.26 1.30 1.30 1.25 1.22 1.21 1.21 1.19 1.16 1.14 1.13 1.12 1.09 1.07 1.04 1.01 1.03 1.07 1.00 0.95 0.96 0.95 0.91 0.92 0.93 0.94 0.94 0.93 0.93 0.93 0.91 0.88 0.86 0.84 0.81 0.79 0.77 0.82 0.84 0.85 0.86 0.84 0.80 0.83 0.84 0.84 0.83 0.79 0.80 0.78 0.74 0.72 0.71 0.69 0.71 0.69 0.66 0.62 0.58 0.54 0.54 0.51 0.51 0.55 0.54 0.51 0.50 0.49 0.52 0.53
0.90 0.92 1.00 1.02 1.03 1.00 0.94 0.95 1.00 1.03 1.05 1.08 1.11 1.16 1.19 1.23 1.25 1.21 1.19 1.19 1.20 1.18 1.15 1.15 1.13 1.10 1.07 1.05 1.04 1.00 1.00 1.05 1.07 1.01 0.99 0.96 0.93 0.92 0.94 0.94 0.95 0.94 0.93 0.91 0.90 0.88 0.84 0.84 0.82 0.78 0.73 0.73 0.75 0.77 0.80 0.82 0.85 0.83 0.83 0.82 0.78 0.78 0.76 0.74 0.73 0.70 0.69 0.67 0.70 0.71 0.69 0.67 0.63 0.60 0.55 0.55 0.58 0.59 0.56 0.52 0.50 0.53 0.54 0.55 0.55
0.86 0.91 0.93 0.96 1.01 1.07 1.03 0.99 0.99 0.99 1.00 1.05 1.09 1.12 1.14 1.17 1.17 1.16 1.16 1.16 1.14 1.14 1.13 1.09 1.09 1.09 1.05 1.01 1.01 1.00 1.01 1.06 1.06 1.00 0.98 0.96 0.94 0.93 0.93 0.94 0.94 0.94 0.92 0.90 0.86 0.83 0.83 0.86 0.81 0.78 0.76 0.74 0.75 0.75 0.76 0.78 0.78 0.77 0.79 0.81 0.81 0.77 0.74 0.72 0.70 0.70 0.70 0.69 0.73 0.73 0.71 0.69 0.67 0.64 0.59 0.59 0.59 0.56 0.54 0.54 0.53 0.55 0.53 0.53 0.51
0.85 0.84 0.87 0.89 0.95 1.02 1.05 1.05 1.00 0.99 1.00 1.02 1.05 1.08 1.10 1.11 1.11 1.11 1.10 1.08 1.09 1.12 1.09 1.08 1.08 1.06 1.03 1.02 1.00 0.99 1.01 1.07 1.04 1.00 0.98 0.95 0.94 0.94 0.96 0.93 0.93 0.90 0.89 0.87 0.84 0.81 0.83 0.89 0.85 0.80 0.77 0.73 0.72 0.73 0.74 0.74 0.73 0.72 0.73 0.75 0.75 0.75 0.76 0.76 0.75 0.73 0.74 0.72 0.72 0.74 0.75 0.73 0.71 0.69 0.66 0.62 0.56 0.55 0.56 0.58 0.56 0.50 0.58 0.56 0.55
0.85 0.80 0.83 0.86 0.91 1.02 1.08 1.10 1.04 0.96 0.97 0.99 1.03 1.05 1.05 1.06 1.06 1.06 1.03 1.04 1.06 1.05 1.05 1.06 1.04 1.04 1.02 1.00 0.98 0.99 1.00 1.07 1.03 1.00 0.98 0.95 0.94 0.96 0.95 0.95 0.91 0.89 0.88 0.86 0.83 0.82 0.87 0.88 0.83 0.77 0.75 0.71 0.68 0.69 0.71 0.70 0.69 0.70 0.71 0.75 0.75 0.76 0.76 0.77 0.81 0.81 0.83 0.80 0.78 0.78 0.76 0.73 0.70 0.67 0.65 0.62 0.59 0.52 0.53 0.58 0.56 0.50 0.56 0.57 0.54
0.82 0.79 0.84 0.87 0.91 1.01 1.07 1.09 1.06 0.98 0.94 0.97 1.01 1.01 1.00 0.98 1.00 1.04 1.04 1.05 1.03 1.03 1.04 1.04 1.03 1.00 1.02 1.00 1.00 0.99 1.00 1.07 1.02 0.99 0.97 0.95 0.94 0.96 0.97 0.96 0.95 0.94 0.92 0.90 0.87 0.85 0.87 0.85 0.79 0.73 0.72 0.65 0.62 0.64 0.67 0.68 0.67 0.70 0.75 0.78 0.77 0.76 0.78 0.80 0.81 0.84 0.86 0.81 0.76 0.70 0.71 0.71 0.68 0.68 0.70 0.66 0.57 0.53 0.49 0.52 0.51 0.46 0.51 0.52 0.56
0.82 0.80 0.81 0.85 0.91 0.99 1.04 1.07 1.08 1.00 0.93 0.96 0.97 0.96 0.94 0.95 1.00 1.01 1.00 0.99 0.99 1.00 1.01 0.99 1.01 1.02 1.05 1.04 1.02 0.99 1.04 1.07 1.01 0.99 0.97 0.95 0.94 0.96 1.00 0.99 0.98 0.96 0.95 0.93 0.91 0.88 0.88 0.86 0.81 0.79 0.74 0.67 0.69 0.67 0.64 0.65 0.67 0.72 0.76 0.77 0.79 0.79 0.78 0.78 0.81 0.82 0.77 0.77 0.74 0.72 0.71 0.70 0.69 0.70 0.69 0.67 0.63 0.59 0.53 0.50 0.51 0.49 0.56 0.60 0.58
0.84 0.84 0.83 0.84 0.89 1.00 1.07 1.10 1.09 1.03 0.93 0.94 0.92 0.93 0.94 0.95 0.93 0.96 0.97 0.99 1.04 1.07 1.09 1.05 1.01 1.03 1.06 1.06 1.01 0.98 1.05 1.05 1.00 0.98 0.96 0.94 0.95 0.96 0.97 0.97 0.96 0.95 0.94 0.93 0.92 0.91 0.91 0.89 0.86 0.84 0.79 0.71 0.77 0.76 0.71 0.71 0.71 0.72 0.73 0.76 0.75 0.75 0.74 0.77 0.81 0.81 0.78 0.77 0.76 0.73 0.72 0.72 0.71 0.68 0.65 0.62 0.62 0.60 0.56 0.54 0.56 0.51 0.53 0.51 0.49
0.87 0.91 0.87 0.85 0.92 1.02 1.09 1.10 1.08 1.03 0.94 0.89 0.88 0.87 0.88 0.92 0.94 0.95 0.92 0.97 0.99 1.01 1.04 1.05 1.05 1.05 1.06 1.06 1.00 0.99 1.05 1.02 0.99 0.98 0.95 0.93 0.93 0.92 0.94 0.94 0.93 0.93 0.93 0.94 0.94 0.93 0.93 0.92 0.90 0.87 0.83 0.80 0.81 0.78 0.75 0.73 0.72 0.71 0.71 0.71 0.72 0.70 0.72 0.75 0.77 0.76 0.74 0.73 0.74 0.74 0.73 0.71 0.69 0.66 0.63 0.62 0.57 0.53 0.49 0.49 0.48 0.49 0.46 0.45 0.49
0.90 0.94 0.88 0.88 0.95 1.05 1.12 1.12 1.08 1.04 0.94 0.87 0.84 0.85 0.88 0.92 0.92 0.92 0.89 0.92 0.97 1.01 1.06 1.08 1.08 1.09 1.08 1.06 1.02 1.01 1.04 1.00 0.98 0.97 0.93 0.90 0.90 0.91 0.93 0.90 0.90 0.91 0.93 0.96 0.96 0.97 0.97 0.95 0.93 0.90 0.86 0.85 0.85 0.81 0.77 0.74 0.71 0.69 0.69 0.70 0.70 0.69 0.68 0.67 0.67 0.68 0.70 0.69 0.70 0.71 0.70 0.69 0.66 0.62 0.59 0.54 0.50 0.49 0.48 0.44 0.47 0.47 0.45 0.45 0.43
0.83 0.83 0.92 0.99 1.01 1.04 1.09 1.15 1.14 1.08 0.93 0.86 0.84 0.83 0.84 0.87 0.93 0.95 0.96 0.98 1.00 1.05 1.10 1.10 1.10 1.12 1.12 1.09 1.04 1.05 1.03 0.96 0.98 0.96 0.90 0.86 0.89 0.93 0.93 0.89 0.88 0.90 0.91 0.91 0.94 0.96 0.96 0.95 0.93 0.93 0.91 0.89 0.87 0.83 0.77 0.75 0.74 0.72 0.71 0.70 0.70 0.70 0.69 0.63 0.58 0.58 0.58 0.58 0.60 0.62 0.62 0.61 0.58 0.55 0.51 0.48 0.46 0.48 0.51 0.52 0.54 0.48 0.44 0.45 0.45
0.77 0.90 1.01 1.04 0.99 1.00 1.08 1.11 1.14 1.04 0.90 0.87 0.88 0.88 0.91 0.94 0.96 0.95 0.98 1.02 1.05 1.09 1.13 1.13 1.11 1.11 1.12 1.09 1.05 1.08 1.00 0.95 0.98 0.94 0.88 0.86 0.90 0.94 0.93 0.89 0.87 0.88 0.90 0.89 0.87 0.92 0.94 0.93 0.92 0.93 0.91 0.88 0.85 0.82 0.78 0.76 0.81 0.81 0.81 0.77 0.74 0.73 0.76 0.67 0.59 0.54 0.51 0.50 0.51 0.51 0.51 0.53 0.52 0.49 0.45 0.41 0.44 0.53 0.56 0.58 0.55 0.51 0.48 0.47 0.48
0.71 0.80 0.96 1.03 1.02 1.03 1.09 1.12 1.07 0.99 0.92 0.88 0.90 0.93 0.97 0.95 0.95 0.98 1.00 1.05 1.08 1.11 1.12 1.15 1.14 1.11 1.11 1.10 1.09 1.09 0.99 0.96 0.98 0.93 0.87 0.86 0.90 0.93 0.93 0.91 0.91 0.89 0.89 0.88 0.87 0.89 0.91 0.89 0.89 0.89 0.87 0.86 0.85 0.84 0.81 0.77 0.79 0.83 0.85 0.83 0.80 0.80 0.79 0.71 0.60 0.50 0.45 0.44 0.41 0.41 0.41 0.43 0.41 0.39 0.39 0.41 0.46 0.52 0.52 0.52 0.53 0.53 0.51 0.47 0.45
0.91 0.93 0.92 0.96 1.03 1.08 1.09 1.08 1.06 0.98 0.95 0.94 0.92 0.94 1.01 1.01 0.98 1.01 1.04 1.06 1.07 1.09 1.13 1.15 1.12 1.09 1.10 1.12 1.11 1.05 0.99 1.00 1.00 0.93 0.87 0.86 0.89 0.93 0.93 0.95 0.95 0.91 0.88 0.87 0.86 0.89 0.90 0.88 0.88 0.89 0.89 0.87 0.86 0.84 0.82 0.79 0.75 0.82 0.85 0.86 0.84 0.80 0.76 0.70 0.58 0.49 0.46 0.43 0.40 0.39 0.38 0.37 0.37 0.40 0.42 0.42 0.41 0.46 0.48 0.48 0.50 0.53 0.53 0.52 0.51
0.92 0.95 0.93 1.00 1.09 1.11 1.09 1.06 1.02 0.99 0.97 0.98 0.96 0.95 0.99 0.99 0.99 1.04 1.05 1.07 1.10 1.12 1.14 1.12 1.09 1.07 1.07 1.11 1.09 1.01 0.98 1.02 1.02 0.93 0.88 0.86 0.88 0.93 0.96 0.96 0.94 0.95 0.89 0.86 0.86 0.88 0.92 0.94 0.95 0.93 0.92 0.91 0.89 0.86 0.84 0.80 0.78 0.80 0.84 0.82 0.80 0.77 0.72 0.65 0.58 0.53 0.50 0.45 0.41 0.39 0.38 0.38 0.39 0.41 0.43 0.42 0.40 0.40 0.41 0.41 0.48 0.52 0.53 0.54 0.55
0.84 0.92 1.00 1.07 1.11 1.10 1.07 1.04 1.01 0.99 0.97 0.97 0.97 0.95 0.97 0.99 1.02 1.04 1.06 1.09 1.12 1.12 1.13 1.10 1.07 1.04 1.02 1.06 1.03 0.97 0.98 1.01 1.02 0.95 0.89 0.86 0.89 0.94 0.97 0.96 0.95 0.95 0.93 0.90 0.92 0.92 0.93 0.93 0.94 0.93 0.93 0.92 0.90 0.87 0.84 0.82 0.81 0.78 0.82 0.80 0.77 0.73 0.70 0.66 0.61 0.56 0.53 0.49 0.44 0.41 0.40 0.41 0.43 0.45 0.46 0.47 0.47 0.45 0.41 0.39 0.45 0.52 0.52 0.53 0.54
0.88 0.94 0.97 1.01 1.03 1.04 1.02 1.00 0.99 0.99 0.98 0.98 0.96 0.97 0.99 1.02 1.01 1.05 1.09 1.13 1.14 1.11 1.08 1.07 1.04 1.02 1.04 1.03 0.96 0.93 0.95 1.00 1.00 0.94 0.90 0.88 0.92 0.96 0.97 0.96 0.95 0.96 0.93 0.96 0.96 0.95 0.94 0.94 0.93 0.93 0.92 0.90 0.89 0.88 0.86 0.84 0.82 0.79 0.77 0.78 0.76 0.73 0.70 0.66 0.62 0.58 0.54 0.50 0.47 0.45 0.45 0.47 0.49 0.52 0.53 0.54 0.56 0.56 0.52 0.46 0.42 0.46 0.50 0.51 0.51
0.90 0.93 0.97 0.99 0.99 1.00 0.96 0.98 1.00 1.00 1.02 1.04 1.03 1.02 1.00 1.00 1.01 1.05 1.14 1.16 1.14 1.09 1.05 1.05 1.04 1.03 1.02 1.00 0.91 0.90 0.94 0.99 0.98 0.93 0.88 0.88 0.93 0.97 0.98 0.95 0.96 0.97 0.97 0.96 0.96 0.95 0.94 0.92 0.92 0.91 0.89 0.88 0.87 0.86 0.83 0.81 0.80 0.78 0.76 0.75 0.75 0.72 0.70 0.66 0.62 0.58 0.55 0.53 0.49 0.50 0.53 0.54 0.53 0.51 0.60 0.63 0.61 0.57 0.54 0.50 0.46 0.43 0.44 0.44 0.43
0.89 0.93 0.95 0.95 0.95 0.95 0.93 0.94 0.97 1.01 1.05 1.08 1.08 1.09 1.09 1.07 1.08 1.14 1.17 1.14 1.10 1.08 1.06 1.04 1.02 1.02 0.99 0.95 0.90 0.90 0.93 0.97 0.96 0.91 0.87 0.88 0.92 0.98 0.98 0.95 0.96 0.97 0.96 0.95 0.94 0.93 0.92 0.92 0.90 0.88 0.86 0.86 0.86 0.84 0.82 0.78 0.75 0.73 0.72 0.71 0.70 0.69 0.68 0.65 0.62 0.60 0.58 0.55 0.53 0.52 0.57 0.60 0.59 0.56 0.58 0.59 0.59 0.60 0.57 0.53 0.49 0.47 0.46 0.46 0.42
0.91 0.91 0.91 0.91 0.92 0.94 0.93 0.95 0.98 1.00 1.04 1.06 1.07 1.10 1.12 1.16 1.17 1.16 1.13 1.10 1.06 1.05 1.05 1.03 1.01 1.00 0.98 0.94 0.89 0.88 0.91 0.93 0.93 0.90 0.86 0.88 0.94 0.99 0.98 0.96 0.96 0.96 0.94 0.93 0.93 0.93 0.92 0.91 0.88 0.85 0.84 0.83 0.82 0.79 0.77 0.73 0.69 0.67 0.67 0.67 0.67 0.68 0.68 0.67 0.65 0.64 0.64 0.62 0.57 0.55 0.58 0.58 0.56 0.58 0.58 0.57 0.57 0.59 0.58 0.52 0.49 0.48 0.47 0.44 0.39
0.95 0.93 0.93 0.92 0.92 0.94 0.95 0.97 1.00 1.00 1.03 1.08 1.12 1.16 1.16 1.19 1.20 1.21 1.25 1.24 1.19 1.13 1.10 1.08 1.07 1.06 1.02 0.94 0.87 0.84 0.86 0.86 0.92 0.98 0.96 0.97 0.98 0.99 0.98 0.98 0.98 0.98 0.96 0.95 0.94 0.92 0.90 0.87 0.83 0.81 0.80 0.78 0.75 0.75 0.75 0.71 0.67 0.65 0.64 0.64 0.65 0.66 0.66 0.65 0.61 0.61 0.64 0.64 0.59 0.55 0.54 0.54 0.53 0.56 0.56 0.55 0.56 0.55 0.58 0.56 0.54 0.49 0.47 0.43 0.37
0.94 0.93 0.93 0.92 0.94 0.98 1.00 1.01 1.05 1.04 1.05 1.08 1.10 1.15 1.22 1.25 1.26 1.23 1.22 1.25 1.25 1.24 1.20 1.13 1.12 1.09 1.02 0.99 0.96 0.88 0.85 0.91 1.02 1.02 1.00 1.00 1.03 1.06 1.06 1.04 1.01 0.98 0.96 0.97 0.96 0.91 0.87 0.83 0.81 0.79 0.78 0.76 0.74 0.72 0.72 0.72 0.68 0.64 0.62 0.62 0.62 0.63 0.63 0.63 0.61 0.61 0.64 0.63 0.60 0.55 0.54 0.53 0.51 0.50 0.50 0.52 0.52 0.55 0.58 0.55 0.51 0.47 0.41 0.37 0.34
0.95 0.97 0.97 0.96 0.98 0.99 1.00 1.02 1.04 1.07 1.09 1.10 1.14 1.12 1.13 1.19 1.23 1.24 1.23 1.22 1.21 1.19 1.18 1.17 1.17 1.12 1.03 0.97 1.00 1.00 0.98 0.99 1.03 1.01 1.00 1.03 1.07 1.07 1.05 1.03 1.01 0.99 0.97 0.96 0.93 0.88 0.84 0.80 0.79 0.78 0.77 0.74 0.72 0.70 0.69 0.69 0.69 0.68 0.67 0.65 0.62 0.60 0.60 0.60 0.61 0.61 0.60 0.59 0.58 0.56 0.53 0.52 0.50 0.49 0.47 0.49 0.51 0.53 0.53 0.52 0.49 0.47 0.40 0.35 0.35
0.97 1.00 1.02 1.03 1.03 1.03 1.05 1.07 1.09 1.11 1.12 1.15 1.14 1.11 1.10 1.09 1.14 1.19 1.20 1.19 1.19 1.16 1.14 1.12 1.13 1.12 1.09 1.04 0.97 0.95 0.98 1.02 1.04 1.03 1.03 1.05 1.08 1.09 1.07 1.04 1.02 1.00 0.98 0.98 0.89 0.84 0.84 0.81 0.79 0.77 0.75 0.74 0.73 0.72 0.69 0.67 0.68 0.69 0.68 0.67 0.67 0.64 0.60 0.59 0.62 0.63 0.61 0.59 0.57 0.55 0.53 0.51 0.49 0.51 0.53 0.53 0.51 0.49 0.48 0.46 0.45 0.44 0.41 0.37 0.35
1.05 1.04 1.06 1.06 1.05 1.07 1.11 1.14 1.16 1.14 1.11 1.09 1.08 1.10 1.09 1.08 1.04 1.05 1.13 1.17 1.18 1.15 1.13 1.12 1.09 1.06 1.03 1.00 1.00 0.99 1.00 1.05 1.07 1.05 1.05 1.08 1.12 1.11 1.08 1.05 1.04 1.01 0.97 0.90 0.85 0.83 0.83 0.82 0.82 0.83 0.81 0.73 0.72 0.71 0.69 0.67 0.66 0.67 0.68 0.67 0.67 0.67 0.66 0.65 0.65 0.64 0.61 0.59 0.57 0.55 0.53 0.51 0.50 0.51 0.52 0.52 0.49 0.45 0.44 0.43 0.43 0.41 0.38 0.36 0.35
1.10 1.09 1.12 1.14 1.14 1.15 1.16 1.15 1.15 1.13 1.12 1.10 1.09 1.09 1.10 1.11 1.07 1.06 1.05 1.09 1.13 1.15 1.14 1.11 1.08 1.06 1.02 1.01 1.02 1.04 1.06 1.07 1.08 1.06 1.07 1.13 1.16 1.13 1.08 1.06 1.04 1.00 0.94 0.88 0.86 0.83 0.84 0.83 0.84 0.84 0.84 0.84 0.80 0.74 0.71 0.70 0.69 0.67 0.65 0.66 0.68 0.68 0.67 0.68 0.66 0.62 0.58 0.57 0.56 0.54 0.52 0.49 0.49 0.49 0.48 0.46 0.45 0.44 0.43 0.42 0.38 0.36 0.36 0.36 0.35
1.22 1.22 1.26 1.26 1.24 1.21 1.20 1.17 1.15 1.13 1.12 1.11 1.10 1.11 1.12 1.13 1.12 1.10 1.10 1.09 1.03 0.99 1.02 1.07 1.08 1.06 1.03 1.02 1.05 1.07 1.08 1.09 1.09 1.09 1.13 1.18 1.18 1.14 1.10 1.02 0.95 0.92 0.91 0.90 0.88 0.87 0.85 0.85 0.86 0.86 0.85 0.83 0.83 0.83 0.77 0.72 0.69 0.67 0.66 0.64 0.63 0.63 0.63 0.63 0.62 0.61 0.58 0.55 0.55 0.54 0.52 0.49 0.46 0.44 0.42 0.40 0.39 0.37 0.35 0.34 0.35 0.35 0.36 0.38 0.37
1.16 1.16 1.18 1.21 1.22 1.20 1.18 1.17 1.16 1.14 1.14 1.14 1.16 1.15 1.14 1.13 1.14 1.17 1.19 1.15 1.09 1.05 1.06 1.08 1.09 1.08 1.07 1.08 1.09 1.10 1.09 1.10 1.08 1.10 1.16 1.22 1.21 1.16 1.04 0.96 0.93 0.91 0.89 0.90 0.89 0.89 0.89 0.89 0.90 0.88 0.86 0.84 0.84 0.84 0.84 0.80 0.71 0.67 0.68 0.65 0.61 0.60 0.59 0.58 0.58 0.59 0.61 0.57 0.54 0.54 0.53 0.51 0.49 0.46 0.44 0.43 0.43 0.42 0.42 0.41 0.40 0.38 0.37 0.34 0.36
1.19 1.16 1.16 1.19 1.23 1.23 1.21 1.20 1.18 1.17 1.16 1.16 1.16 1.15 1.14 1.15 1.19 1.21 1.21 1.17 1.11 1.09 1.07 1.07 1.06 1.04 1.05 1.08 1.10 1.10 1.09 1.09 1.09 1.13 1.20 1.21 1.21 1.16 1.07 1.00 0.95 0.93 0.91 0.91 0.91 0.89 0.88 0.91 0.92 0.91 0.88 0.85 0.84 0.83 0.83 0.80 0.78 0.74 0.72 0.70 0.66 0.60 0.57 0.57 0.58 0.60 0.61 0.60 0.57 0.55 0.53 0.51 0.49 0.48 0.46 0.44 0.43 0.43 0.42 0.40 0.40 0.39 0.38 0.36 0.33
1.25 1.25 1.24 1.23 1.24 1.24 1.23 1.21 1.19 1.17 1.17 1.16 1.17 1.16 1.14 1.14 1.16 1.18 1.16 1.16 1.15 1.12 1.09 1.08 1.06 0.99 0.94 0.97 1.03 1.05 1.07 1.09 1.12 1.15 1.19 1.18 1.15 1.09 1.04 1.00 0.98 0.95 0.94 0.93 0.92 0.91 0.91 0.92 0.92 0.90 0.88 0.87 0.85 0.84 0.81 0.79 0.77 0.75 0.72 0.71 0.70 0.68 0.65 0.61 0.61 0.62 0.63 0.62 0.60 0.56 0.53 0.50 0.48 0.46 0.44 0.41 0.39 0.37 0.37 0.36 0.35 0.35 0.36 0.35 0.36
1.22 1.24 1.25 1.23 1.22 1.23 1.23 1.19 1.16 1.15 1.14 1.14 1.14 1.15 1.14 1.17 1.20 1.22 1.21 1.19 1.19 1.14 1.10 1.06 1.02 0.99 1.00 1.04 1.07 1.10 1.07 1.04 1.04 1.08 1.13 1.13 1.13 1.10 1.05 1.01 0.99 0.97 0.96 0.93 0.93 0.93 0.92 0.91 0.90 0.89 0.87 0.86 0.85 0.84 0.81 0.78 0.76 0.74 0.72 0.70 0.68 0.67 0.64 0.63 0.63 0.63 0.62 0.61 0.59 0.56 0.52 0.49 0.46 0.44 0.40 0.37 0.35 0.35 0.35 0.34 0.34 0.34 0.34 0.35 0.37
1.20 1.20 1.23 1.22 1.19 1.20 1.22 1.19 1.20 1.21 1.17 1.15 1.14 1.14 1.13 1.14 1.15 1.16 1.18 1.18 1.17 1.12 1.07 1.06 1.06 1.07 1.12 1.16 1.14 1.12 1.07 1.07 1.10 1.11 1.14 1.12 1.09 1.08 1.03 1.00 0.99 0.96 0.92 0.91 0.91 0.90 0.89 0.88 0.88 0.86 0.85 0.86 0.85 0.83 0.80 0.78 0.76 0.74 0.72 0.69 0.66 0.64 0.63 0.63 0.62 0.61 0.60 0.60 0.57 0.54 0.50 0.46 0.44 0.43 0.41 0.39 0.36 0.36 0.35 0.35 0.34 0.34 0.34 0.34 0.36
1.22 1.23 1.22 1.21 1.20 1.20 1.20 1.21 1.21 1.21 1.22 1.21 1.26 1.24 1.20 1.23 1.20 1.18 1.17 1.21 1.22 1.22 1.14 1.13 1.14 1.17 1.19 1.21 1.22 1.21 1.15 1.10 1.10 1.15 1.18 1.17 1.10 1.07 1.03 0.99 0.96 0.94 0.92 0.90 0.89 0.88 0.87 0.86 0.85 0.85 0.85 0.85 0.84 0.81 0.78 0.77 0.75 0.73 0.70 0.68 0.65 0.63 0.63 0.62 0.61 0.60 0.58 0.56 0.54 0.51 0.48 0.45 0.43 0.42 0.41 0.41 0.41 0.40 0.39 0.38 0.36 0.35 0.34 0.34 0.34
1.17 1.16 1.15 1.16 1.19 1.20 1.18 1.17 1.17 1.19 1.16 1.15 1.17 1.20 1.24 1.26 1.26 1.25 1.24 1.23 1.24 1.23 1.21 1.20 1.21 1.23 1.25 1.26 1.25 1.21 1.17 1.16 1.14 1.15 1.17 1.16 1.11 1.06 1.02 0.96 0.94 0.93 0.92 0.91 0.89 0.87 0.87 0.87 0.86 0.85 0.83 0.82 0.80 0.78 0.76 0.74 0.73 0.72 0.70 0.67 0.64 0.62 0.61 0.59 0.59 0.58 0.56 0.53 0.51 0.49 0.45 0.42 0.41 0.40 0.40 0.40 0.39 0.38 0.37 0.36 0.35 0.33 0.31 0.29 0.29
1.20 1.22 1.23 1.20 1.18 1.17 1.15 1.16 1.18 1.17 1.15 1.15 1.17 1.19 1.21 1.22 1.22 1.21 1.18 1.16 1.12 1.11 1.12 1.16 1.23 1.25 1.25 1.25 1.24 1.19 1.15 1.11 1.11 1.16 1.17 1.13 1.09 1.04 0.99 0.95 0.94 0.94 0.94 0.93 0.92 0.91 0.89 0.87 0.86 0.84 0.82 0.80 0.78 0.76 0.73 0.72 0.71 0.70 0.68 0.65 0.63 0.61 0.60 0.58 0.57 0.56 0.55 0.53 0.50 0.47 0.45 0.43 0.42 0.40 0.39 0.38 0.37 0.36 0.33 0.31 0.29 0.28 0.27 0.27 0.26
1.15 1.18 1.22 1.21 1.19 1.16 1.15 1.15 1.15 1.15 1.15 1.16 1.18 1.20 1.20 1.21 1.20 1.19 1.20 1.18 1.15 1.12 1.14 1.20 1.22 1.24 1.24 1.23 1.20 1.15 1.09 1.05 1.09 1.14 1.12 1.09 1.06 1.02 1.00 0.98 0.97 0.96 0.96 0.96 0.94 0.92 0.90 0.87 0.85 0.84 0.82 0.80 0.78 0.77 0.74 0.72 0.70 0.68 0.66 0.64 0.62 0.60 0.58 0.57 0.56 0.55 0.53 0.51 0.49 0.46 0.45 0.44 0.43 0.40 0.38 0.38 0.37 0.34 0.32 0.30 0.28 0.26 0.26 0.26 0.28
1.14 1.14 1.13 1.13 1.13 1.12 1.10 1.12 1.14 1.14 1.14 1.15 1.17 1.20 1.20 1.23 1.22 1.24 1.24 1.22 1.21 1.20 1.21 1.23 1.24 1.22 1.21 1.20 1.16 1.10 1.05 1.07 1.11 1.12 1.09 1.06 1.04 1.02 1.01 0.99 0.98 0.98 0.98 0.97 0.95 0.92 0.91 0.89 0.87 0.83 0.80 0.78 0.76 0.75 0.73 0.72 0.70 0.68 0.65 0.62 0.60 0.58 0.58 0.58 0.57 0.55 0.52 0.50 0.48 0.46 0.44 0.42 0.40 0.39 0.38 0.36 0.34 0.32 0.31 0.31 0.30 0.29 0.28 0.27 0.28
1.10 1.11 1.10 1.10 1.09 1.08 1.09 1.11 1.11 1.11 1.11 1.11 1.11 1.13 1.15 1.16 1.18 1.20 1.20 1.21 1.21 1.21 1.21 1.22 1.22 1.21 1.19 1.19 1.16 1.12 1.12 1.15 1.14 1.12 1.07 1.03 1.00 0.98 0.97 0.97 0.99 0.98 0.97 0.96 0.95 0.94 0.92 0.89 0.86 0.83 0.79 0.76 0.75 0.74 0.73 0.71 0.69 0.68 0.65 0.62 0.59 0.57 0.56 0.56 0.55 0.51 0.49 0.47 0.47 0.45 0.43 0.40 0.38 0.37 0.37 0.36 0.36 0.37 0.37 0.37 0.36 0.32 0.30 0.29 0.31
1.07 1.09 1.10 1.12 1.11 1.10 1.10 1.10 1.08 1.07 1.06 1.07 1.08 1.08 1.08 1.08 1.08 1.09 1.13 1.17 1.18 1.19 1.19 1.19 1.19 1.18 1.16 1.14 1.14 1.15 1.15 1.14 1.13 1.10 1.04 1.00 0.99 0.99 0.99 0.99 0.98 0.96 0.95 0.94 0.93 0.92 0.90 0.88 0.85 0.82 0.78 0.76 0.75 0.74 0.72 0.70 0.69 0.67 0.66 0.63 0.60 0.57 0.55 0.53 0.52 0.51 0.46 0.46 0.46 0.43 0.40 0.38 0.37 0.39 0.40 0.41 0.40 0.39 0.38 0.38 0.37 0.36 0.35 0.34 0.35
1.07 1.05 1.07 1.09 1.10 1.09 1.08 1.07 1.04 1.03 1.03 1.03 1.04 1.04 1.05 1.05 1.04 1.05 1.08 1.11 1.12 1.12 1.13 1.15 1.16 1.15 1.14 1.15 1.16 1.16 1.15 1.13 1.11 1.08 1.04 1.02 1.01 0.99 0.98 0.95 0.94 0.93 0.92 0.91 0.90 0.89 0.86 0.84 0.81 0.79 0.76 0.75 0.74 0.72 0.70 0.70 0.69 0.68 0.65 0.63 0.61 0.59 0.56 0.53 0.51 0.50 0.50 0.49 0.47 0.44 0.42 0.41 0.41 0.42 0.42 0.41 0.41 0.40 0.39 0.38 0.38 0.38 0.36 0.36 0.37
1.09 1.08 1.06 1.04 1.02 1.01 1.01 1.03 1.03 1.02 1.01 1.01 1.02 1.03 1.04 1.05 1.06 1.07 1.08 1.10 1.10 1.09 1.09 1.09 1.10 1.13 1.13 1.13 1.14 1.13 1.13 1.11 1.08 1.06 1.03 1.00 0.98 0.96 0.95 0.93 0.92 0.90 0.87 0.85 0.84 0.82 0.80 0.78 0.77 0.75 0.73 0.72 0.71 0.70 0.69 0.70 0.69 0.67 0.64 0.61 0.60 0.58 0.56 0.54 0.51 0.50 0.50 0.50 0.49 0.48 0.45 0.42 0.40 0.41 0.42 0.41 0.41 0.40 0.39 0.39 0.38 0.37 0.36 0.36 0.37
1.00 1.03 1.05 1.05 1.05 1.04 1.04 1.03 1.02 1.02 1.03 1.03 1.01 1.00 1.01 1.03 1.04 1.06 1.08 1.08 1.09 1.08 1.09 1.09 1.07 1.09 1.09 1.08 1.08 1.08 1.08 1.06 1.04 1.02 1.00 0.97 0.94 0.95 0.94 0.90 0.88 0.86 0.84 0.82 0.80 0.79 0.77 0.76 0.75 0.73 0.71 0.71 0.70 0.69 0.69 0.69 0.68 0.67 0.65 0.62 0.59 0.57 0.55 0.52 0.51 0.49 0.49 0.49 0.49 0.48 0.45 0.40 0.37 0.35 0.36 0.38 0.39 0.38 0.38 0.36 0.35 0.34 0.35 0.36 0.37
0.94 0.93 0.94 0.97 0.99 1.01 1.02 1.01 1.02 1.02 1.02 1.02 1.01 1.00 1.00 1.02 1.03 1.04 1.05 1.05 1.05 1.04 1.05 1.06 1.05 1.05 1.05 1.04 1.02 1.02 1.01 1.01 1.01 1.00 0.98 0.95 0.92 0.90 0.88 0.86 0.86 0.85 0.84 0.81 0.78 0.77 0.75 0.74 0.72 0.71 0.70 0.70 0.71 0.70 0.68 0.67 0.66 0.65 0.62 0.60 0.58 0.56 0.53 0.51 0.50 0.49 0.49 0.49 0.48 0.45 0.41 0.37 0.36 0.34 0.33 0.34 0.34 0.33 0.33 0.34 0.36 0.37 0.38 0.39 0.41
Wind_Speed
38 38 37 38 38 36 34 32 31 31 30 30 29 28 27 25 24 23 22 20 20 19 18 18 18 17 17 17 16 16 17 17 17 17 17 17 17 18 19 19 19 18 18 17 16 15 14 14 13 13 11 9 8 7 7 8 8 9 9 9 9 9 9 9 8 8 8 9 10 10 10 11 12 13 14 14 14 14 15 15 14 15 16 16 16
38 38 37 38 38 37 34 33 32 31 31 30 29 28 27 26 25 25 23 22 21 20 20 19 18 18 18 18 17 17 17 17 18 18 18 17 17 17 18 18 17 17 16 16 14 14 13 12 12 10 8 7 6 7 7 7 8 8 9 9 8 8 8 9 9 8 8 9 9 10 11 12 12 14 14 15 15 15 15 15 16 16 17 17 17
39 38 37 38 39 38 36 34 33 32 32 31 30 29 28 27 26 26 24 22 21 21 21 20 19 19 19 18 18 17 17 17 17 17 17 16 16 16 17 16 16 15 15 14 13 13 12 11 10 8 6 5 6 7 7 7 7 8 8 8 8 8 9 10 10 9 9 10 10 11 12 13 13 14 14 15 16 16 16 16 17 18 18 18 18
40 39 38 38 39 39 38 36 35 34 33 32 31 31 30 28 27 26 25 23 22 22 21 20 20 20 20 19 18 18 17 17 17 17 17 16 15 16 16 15 15 15 14 13 12 11 10 9 8 6 5 4 4 4 5 6 6 6 6 7 8 8 9 10 11 10 10 11 11 12 13 14 14 15 15 15 16 17 18 17 18 19 19 19 19
42 40 39 39 39 39 39 38 37 36 34 34 33 32 31 30 28 27 26 24 23 23 22 21 21 20 20 20 19 18 18 17 17 17 16 15 15 15 15 15 14 14 13 12 12 10 9 7 6 5 4 4 4 3 4 4 5 5 6 7 9 9 10 11 11 10 11 12 13 13 14 15 15 15 16 16 17 18 19 19 19 19 20 20 19
43 42 40 40 39 39 39 38 37 36 35 34 34 33 32 31 29 28 27 25 24 23 22 21 21 21 21 20 19 19 18 17 17 16 16 15 15 15 15 14 14 13 12 12 11 10 9 7 6 6 5 5 5 4 5 6 6 7 7 8 10 10 10 11 11 11 11 12 13 14 14 15 16 16 17 17 18 19 20 20 20 20 20 21 20
45 44 42 41 40 40 39 38 37 37 36 35 34 33 32 31 30 29 27 26 25 23 22 22 21 21 21 21 20 19 18 17 17 16 16 16 15 15 15 14 14 13 12 11 11 10 9 8 7 6 6 6 6 6 6 7 8 8 9 10 11 11 11 11 11 11 12 12 14 15 15 16 17 17 18 18 18 19 20 21 21 21 21 22 21
46 45 44 42 41 41 40 39 38 37 36 35 34 33 32 32 30 29 28 26 25 24 23 23 22 22 22 21 21 19 18 17 17 16 16 16 16 15 15 14 13 12 12 11 11 10 9 9 8 8 7 7 7 7 8 8 9 9 10 11 11 11 11 12 12 12 13 13 14 15 15 16 17 18 18 19 19 19 20 21 21 22 22 22 23
47 45 44 43 42 41 40 39 38 37 36 35 34 34 33 32 30 29 28 27 26 25 24 23 23 23 23 22 21 20 18 18 17 17 17 16 16 15 15 14 13 12 12 11 11 10 10 10 10 9 9 8 8 8 9 9 9 10 11 11 11 11 12 13 14 14 14 15 15 15 16 17 18 19 19 20 20 20 21 21 22 23 23 23 23
47 46 45 44 42 42 41 40 39 38 37 36 35 34 33 32 31 30 29 28 27 26 25 24 24 24 23 23 21 20 19 18 18 17 17 16 16 15 15 15 14 13 12 12 11 11 11 10 10 10 10 10 9 9 9 9 10 10 11 11 12 13 13 13 14 15 16 17 17 17 17 17 18 19 20 21 21 21 22 22 22 23 23 23 23
47 46 45 44 43 42 41 40 39 38 37 36 35 35 34 33 32 31 30 29 28 27 26 25 25 24 24 23 21 20 19 18 18 18 17 16 16 16 15 15 14 13 13 13 12 12 11 11 11 11 11 11 11 11 10 10 11 11 12 12 13 13 14 15 15 16 17 18 18 18 18 19 19 20 20 21 22 22 23 22 23 24 24 23 24
46 46 45 44 43 42 41 41 40 38 37 36 36 35 34 33 32 31 30 29 29 28 27 26 25 24 24 23 21 20 20 19 19 18 17 16 16 16 15 15 14 13 13 13 13 12 12 12 12 12 12 12 12 12 12 12 12 12 13 13 13 14 15 16 17 17 18 19 19 20 20 20 20 20 20 21 22 23 23 23 24 24 25 24 24
44 44 44 44 43 42 41 41 40 39 37 36 36 35 35 34 33 32 31 30 29 28 27 27 26 25 24 22 21 20 20 20 19 19 18 17 16 15 15 15 14 14 14 14 13 13 13 13 12 13 13 13 14 14 14 14 14 14 14 14 15 15 15 16 17 18 19 19 20 20 20 20 21 21 21 22 23 23 24 24 24 24 25 25 25
42 42 43 42 42 42 41 40 40 39 37 37 36 35 35 34 33 32 31 31 30 29 28 27 26 25 23 22 22 21 20 20 20 19 19 18 17 16 15 15 14 14 14 14 14 13 13 13 13 13 13 14 14 14 15 15 15 15 15 15 16 16 17 17 18 18 19 19 20 20 20 20 21 21 21 21 22 23 23 24 24 24 26 26 26
41 41 41 41 41 41 41 40 39 39 38 37 36 35 35 34 34 33 32 31 30 29 29 28 27 25 24 23 22 21 21 21 21 20 19 18 17 16 16 15 15 15 15 14 14 14 14 14 14 13 14 14 14 14 15 15 16 16 16 16 17 17 18 18 18 19 19 20 20 20 20 20 20 20 21 21 22 22 23 23 24 25 25 25 25
40 40 40 40 40 40 39 39 38 38 38 37 36 35 35 35 34 33 31 30 30 30 29 28 27 25 24 23 22 21 21 22 21 20 19 19 18 17 16 15 15 15 15 14 14 14 14 14 14 14 14 14 14 14 15 15 16 16 16 17 17 18 19 19 19 19 19 20 20 20 20 20 20 21 21 22 23 23 23 24 24 24 24 24 24
39 39 38 39 38 38 38 37 36 37 37 36 35 35 34 34 33 31 30 30 30 30 29 27 26 25 24 24 22 21 21 22 21 20 19 19 18 17 16 16 15 15 15 15 14 14 15 14 14 15 15 15 15 14 15 15 16 16 16 17 17 18 19 19 19 19 19 20 20 20 20 20 20 21 22 23 23 23 24 24 24 24 23 24 24
38 37 37 37 37 37 36 35 35 35 35 35 34 34 33 32 31 31 30 30 30 29 28 27 26 25 25 24 22 21 22 22 21 20 19 19 18 17 17 16 15 15 15 15 14 15 15 15 15 15 15 15 15 15 16 16 16 17 17 18 18 18 19 20 20 20 20 20 20 20 20 20 21 22 23 24 24 24 24 24 24 24 24 24 24
37 37 36 36 36 36 35 35 34 34 34 33 33 32 31 31 31 31 30 30 29 28 27 26 25 25 25 24 22 22 22 22 22 20 20 19 18 17 16 16 15 15 15 15 14 15 15 15 15 15 15 16 16 16 16 17 17 17 18 18 19 18 19 20 20 20 20 20 20 21 21 22 23 23 24 24 24 24 24 24 24 24 24 24 24
37 36 35 35 36 36 35 35 33 33 33 32 31 31 30 30 30 30 29 29 28 27 26 26 26 25 24 23 22 22 23 22 22 21 20 20 19 18 16 16 15 15 15 15 14 15 15 16 15 15 15 15 16 16 17 17 18 18 18 19 19 19 19 20 20 20 21 21 21 21 22 23 24 24 24 24 23 23 23 23 23 24 24 23 24
36 35 34 34 35 35 34 34 33 32 32 31 30 30 30 30 29 29 28 28 27 27 26 26 25 25 24 23 23 23 23 23 22 21 21 20 20 18 16 15 16 16 15 15 15 15 15 16 16 15 15 15 16 17 18 18 18 19 19 19 19 19 19 20 21 20 20 20 21 21 22 23 23 24 24 23 23 23 23 23 23 23 23 23 23
34 34 33 33 33 33 33 32 32 31 31 30 30 29 29 29 29 29 28 27 27 26 26 25 25 24 24 23 23 23 24 23 22 22 21 21 20 18 16 16 16 16 15 15 15 15 15 15 15 15 15 16 17 18 18 18 19 20 20 19 19 19 19 20 20 20 20 20 21 21 22 22 23 23 23 22 23 24 24 24 24 24 23 23 23
34 33 33 32 32 32 32 32 31 31 30 30 30 30 29 29 29 29 28 27 27 26 26 25 25 24 23 23 23 24 24 23 22 22 22 21 20 18 17 16 16 16 16 15 15 15 15 15 15 15 15 16 17 18 18 19 19 20 20 20 19 19 19 20 19 19 20 20 21 21 22 22 23 22 22 22 23 23 24 24 24 24 24 23 23
33 32 32 32 31 31 31 31 31 30 29 30 30 30 29 29 29 28 28 28 27 26 26 25 24 24 23 23 23 24 24 23 22 22 22 21 20 19 17 17 16 16 15 15 15 15 15 15 15 15 16 16 17 18 18 19 20 20 20 20 20 19 20 20 20 20 20 20 21 21 22 22 23 23 23 22 22 23 23 24 24 24 24 23 23
33 32 31 31 31 30 30 30 30 30 29 30 30 29 29 29 28 28 28 28 27 26 26 25 24 24 24 24 24 24 23 23 23 22 22 21 20 19 18 17 16 16 15 15 15 15 14 14 15 15 16 17 18 18 19 19 20 20 20 20 21 20 20 21 21 21 21 21 21 22 22 23 23 23 23 22 22 22 23 24 24 24 24 23 23
32 31 31 31 30 30 29 29 30 29 29 29 29 29 29 28 28 28 28 28 27 26 26 25 24 24 24 24 24 23 23 23 23 23 22 22 21 19 18 17 16 16 16 16 15 15 14 14 15 16 17 17 18 19 19 19 19 20 20 21 21 21 21 21 21 22 22 22 22 22 22 23 23 23 23 22 23 23 23 23 23 23 23 23 23
31 31 30 30 30 29 29 29 29 29 29 29 28 28 28 28 27 28 28 28 27 27 26 25 25 24 25 24 24 24 23 23 23 23 23 23 22 20 19 18 17 17 17 16 16 16 16 16 16 17 17 18 18 19 19 19 19 20 20 21 21 22 22 22 22 22 22 22 23 23 23 23 23 23 22 22 23 23 23 23 23 23 22 22 22
30 30 30 29 29 29 29 29 28 28 28 28 28 28 28 28 28 28 28 28 28 27 26 26 25 25 25 25 24 23 23 23 24 24 25 24 23 21 20 20 19 18 18 18 17 17 17 17 17 18 18 18 19 19 19 19 19 20 20 20 21 22 22 22 22 22 22 22 23 23 23 23 23 23 23 23 23 23 23 22 22 22 22 22 23
29 29 29 28 29 29 28 28 28 28 28 28 28 27 27 27 27 28 28 28 28 27 26 26 25 25 25 25 25 24 23 23 24 25 26 25 24 23 22 21 21 20 19 18 18 18 18 18 18 18 19 19 19 19 19 19 19 20 20 20 21 21 22 23 23 23 22 23 23 23 23 23 23 23 23 24 24 24 23 22 22 22 22 23 24
28 28 28 27 28 28 27 28 28 28 28 28 27 26 25 25 26 27 27 27 27 27 27 26 26 25 25 26 26 25 24 23 24 26 27 26 25 24 23 22 22 21 19 18 18 18 18 18 18 18 19 19 19 19 19 19 19 20 20 21 21 22 22 23 23 23 23 23 23 23 23 23 23 24 24 25 25 24 23 22 22 22 23 24 24
27 27 26 26 27 27 27 27 27 27 27 28 27 26 25 24 24 24 25 25 26 26 27 27 27 27 27 26 26 25 25 24 25 26 27 26 25 24 24 23 22 21 20 19 18 18 18 18 19 19 19 19 19 19 19 19 20 20 21 21 22 22 23 23 23 23 24 24 23 23 23 23 24 24 25 25 24 23 23 22 23 23 24 24 24
26 26 25 25 26 26 26 27 27 27 27 27 27 27 26 25 24 23 24 24 25 25 26 27 27 28 28 27 26 26 26 26 26 26 27 27 26 25 24 23 23 22 21 20 19 19 19 19 19 19 19 19 19 19 19 20 21 21 21 21 22 23 23 24 24 24 24 24 23 23 24 24 24 24 24 23 23 22 22 23 24 24 24 24 25
26 25 25 25 25 26 26 26 27 26 27 27 28 28 27 26 25 24 23 23 24 24 25 26 27 27 28 28 27 27 27 27 26 26 27 27 26 25 24 23 23 22 21 21 20 20 20 20 20 20 20 20 20 20 20 21 21 22 22 22 22 23 24 24 25 25 24 24 24 24 24 24 24 24 23 23 22 23 23 23 24 24 24 25 25
25 25 25 24 25 25 25 26 26 26 27 27 28 28 28 28 27 25 24 24 23 24 24 25 26 27 28 28 28 28 28 27 26 27 27 27 26 25 24 23 23 23 22 22 21 21 21 21 21 21 20 20 21 21 21 21 22 22 22 23 23 23 24 24 25 25 24 24 23 23 24 24 24 24 23 23 23 24 24 25 25 25 25 25 26
24 24 25 25 25 25 25 26 26 26 27 27 28 28 28 28 28 27 26 25 24 24 25 25 26 27 28 28 28 28 28 27 27 27 28 27 27 26 25 24 23 23 23 22 22 22 22 22 21 21 20 21 21 22 22 23 22 22 23 23 24 24 24 24 24 24 24 24 23 23 24 24 24 24 24 24 24 25 25 25 25 25 25 26 27
23 24 25 26 26 26 26 26 27 27 27 27 28 28 28 28 29 28 28 27 26 25 25 25 25 26 27 27 28 28 27 27 27 28 28 28 28 27 26 25 25 24 23 23 23 23 22 22 22 22 21 21 22 22 23 23 23 23 23 24 24 24 24 23 23 24 24 24 24 24 24 24 25 24 24 24 25 25 25 25 25 25 25 26 27
22 23 25 25 26 27 27 27 28 28 28 28 29 30 30 30 30 30 29 29 28 26 26 26 26 26 26 26 27 27 27 27 27 28 28 28 28 27 27 26 26 24 24 24 23 23 23 23 23 22 22 22 23 23 23 24 24 24 24 24 24 25 24 23 23 23 23 23 24 24 24 24 25 24 24 25 25 25 25 25 25 24 25 26 27
21 22 24 25 26 26 27 28 29 29 29 30 30 31 31 31 31 31 31 30 29 28 28 27 27 27 27 27 27 27 27 27 27 27 27 28 28 27 27 26 25 24 24 24 24 24 24 23 23 23 23 24 24 25 24 24 24 24 24 24 24 24 24 23 23 23 23 24 24 25 25 25 25 25 24 25 25 25 24 24 24 25 25 26 27
20 21 22 24 25 26 27 28 29 29 30 31 31 31 32 32 32 32 32 31 30 30 29 29 29 29 28 28 27 27 27 27 28 28 28 28 28 27 26 26 25 24 24 24 25 24 24 24 24 24 24 24 25 25 25 24 24 24 24 24 24 24 24 23 23 23 24 24 25 26 25 25 24 24 24 24 24 24 24 24 24 24 25 26 27
20 21 21 23 24 25 26 27 28 28 29 29 30 30 31 32 32 32 32 33 32 32 31 30 30 30 30 29 29 28 27 27 28 28 28 28 27 26 25 25 25 25 25 25 25 24 24 24 24 24 24 25 25 25 25 25 25 25 24 24 24 24 24 23 23 24 24 25 26 26 25 24 24 24 24 23 23 23 24 24 24 24 25 25 26
19 21 22 23 23 24 25 26 27 27 27 28 28 28 29 30 31 31 31 32 33 32 31 30 30 30 30 30 30 30 29 29 29 29 28 28 28 26 25 24 24 25 25 25 24 24 24 24 24 24 25 25 25 25 25 25 25 25 25 24 24 24 24 24 24 24 25 25 25 25 24 24 23 23 23 23 23 24 24 24 25 25 25 26 26
19 20 22 23 23 24 25 25 26 27 27 27 27 27 28 29 30 30 30 30 31 31 31 30 30 30 30 30 30 30 29 29 29 29 28 28 28 27 25 24 23 24 24 24 24 23 23 24 24 24 25 25 24 24 24 25 25 25 25 25 24 24 24 24 24 24 24 25 25 25 24 24 23 23 23 23 24 24 24 24 25 25 26 26 26
18 19 20 21 22 23 23 24 24 25 26 27 27 27 27 28 29 29 29 29 29 30 30 30 30 30 30 30 31 30 29 28 28 28 28 28 28 27 26 24 24 24 24 24 23 23 24 24 24 25 25 24 24 24 24 24 24 24 24 24 24 24 25 24 24 24 24 25 25 25 24 24 23 23 23 24 24 24 24 25 25 25 25 26 25
16 17 17 19 20 21 22 22 23 24 25 25 26 26 27 27 28 28 28 28 29 29 29 30 30 30 29 30 30 30 29 28 27 27 28 28 28 27 26 25 25 24 24 24 24 24 24 24 25 25 25 25 25 24 24 24 24 24 24 24 24 24 24 25 25 25 25 25 24 24 24 24 23 23 24 24 24 24 25 25 25 25 25 25 25
15 15 16 17 18 19 20 21 22 22 23 24 24 25 25 26 26 27 28 28 28 28 29 29 29 28 29 30 30 29 28 27 27 27 28 27 27 26 26 25 25 25 24 24 24 24 24 25 25 25 25 25 25 24 24 24 23 23 23 24 24 25 25 25 25 26 25 24 24 23 23 23 23 24 24 24 24 24 24 24 25 25 25 25 24
12 13 14 14 15 16 17 18 19 20 20 21 22 22 23 24 24 25 26 27 27 27 28 27 27 27 27 28 29 28 26 26 26 26 26 26 25 25 24 24 24 24 24 24 25 25 25 25 26 26 25 25 24 24 23 23 22 23 23 24 24 24 24 24 25 25 24 24 24 23 23 23 23 23 24 24 24 24 24 24 25 25 25 24 23
9 10 11 11 12 13 14 15 16 16 16 17 18 19 20 20 20 21 21 22 23 24 24 25 25 25 25 26 27 26 25 25 25 25 25 25 24 24 23 23 23 24 24 25 25 25 25 25 25 25 25 24 24 24 23 23 23 23 24 24 24 24 24 24 24 24 23 23 23 23 22 23 23 23 23 23 24 24 24 24 24 24 23 22 21
6 7 8 9 10 11 12 12 13 14 14 14 15 16 16 17 17 18 18 18 19 19 20 21 22 23 23 23 24 25 25 25 25 24 25 25 25 24 24 24 24 24 24 24 24 24 25 25 25 25 25 24 24 24 24 24 24 24 24 24 24 24 24 24 23 23 23 22 22 22 22 23 23 24 24 24 23 23 23 23 23 23 22 21 20
5 5 6 7 8 9 9 10 11 11 12 12 13 13 13 14 14 15 16 17 17 17 18 18 18 19 20 21 22 23 25 25 25 25 24 25 25 25 25 24 24 24 24 24 24 25 24 24 24 24 24 24 24 24 24 24 24 24 24 24 24 24 24 23 23 23 22 22 21 22 22 23 24 24 24 24 23 23 23 23 23 23 21 21 20
5 5 6 6 7 7 8 8 8 9 10 10 11 11 12 12 13 14 15 16 16 17 17 17 16 17 18 20 20 21 23 25 25 25 24 24 24 24 24 24 24 24 25 25 24 24 24 24 23 23 23 23 23 23 23 24 24 24 24 24 24 23 23 23 22 22 22 22 22 22 23 23 23 23 24 23 23 23 23 23 23 22 21 20 20
6 6 6 6 7 7 7 8 8 9 9 9 10 11 11 12 13 14 15 16 16 16 17 17 17 17 18 19 20 20 21 23 24 24 24 24 24 24 24 24 24 24 24 24 24 24 23 23 23 22 22 22 22 23 23 24 24 24 23 23 23 23 23 23 23 23 23 23 23 23 23 23 23 23 23 23 23 23 23 23 22 21 21 20 20
Wind_Direction
221 222 224 225 225 225 226 226 227 227 228 230 232 233 235 238 243 247 250 253 257 260 262 264 267 269 273 277 281 284 286 287 284 283 283 287 292 296 300 303 304 306 308 309 309 311 313 313 310 306 300 290 277 264 257 252 247 251 255 249 247 253 250 248 261 269 264 266 273 274 274 278 283 288 292 293 292 290 294 296 290 289 293 295 296
223 225 225 224 223 223 225 226 226 227 228 231 233 234 236 240 244 247 249 252 256 259 261 263 266 268 271 275 278 282 285 285 282 280 281 285 290 295 300 303 304 306 309 309 309 313 314 314 313 309 300 288 272 258 252 248 247 253 257 252 248 248 246 250 266 275 271 272 277 278 278 281 285 289 291 293 292 291 294 296 292 291 292 293 293
224 225 225 224 223 223 225 226 227 228 229 231 233 235 237 242 245 246 248 252 255 259 261 262 264 266 270 274 277 281 284 284 280 279 279 282 287 293 298 301 303 306 308 307 310 315 316 315 313 308 299 290 274 259 251 250 251 253 253 251 247 247 252 260 269 274 274 275 277 278 280 282 286 290 291 291 291 291 294 295 293 294 294 291 290
224 224 224 223 223 224 226 227 228 229 230 232 235 237 240 242 245 246 248 251 254 258 260 261 263 265 268 272 274 279 282 281 279 277 277 280 285 290 296 298 300 303 305 307 310 315 315 313 309 303 296 291 284 268 255 251 248 246 248 252 253 256 263 268 271 274 277 279 280 280 282 285 289 291 290 289 291 292 294 294 294 296 297 293 290
223 224 225 224 224 225 226 227 229 230 232 233 235 238 240 242 244 246 248 250 253 257 258 260 262 264 266 269 271 276 279 279 277 274 273 278 282 287 293 295 296 299 302 306 307 308 309 306 301 298 293 289 292 283 266 258 256 258 260 263 264 267 271 274 274 277 281 282 282 283 285 287 290 291 289 289 291 293 294 294 294 295 297 297 293
223 224 225 226 226 226 227 228 229 230 232 234 235 238 240 242 243 245 247 249 252 254 256 258 261 262 264 266 268 273 277 276 275 271 269 274 279 283 289 292 292 294 298 301 300 298 299 297 291 289 285 281 282 280 275 271 270 272 272 273 274 271 271 275 278 281 285 286 286 287 287 288 290 290 289 289 290 292 294 294 295 295 296 297 296
223 223 225 226 227 227 228 228 229 230 232 234 236 237 239 241 243 244 247 248 250 252 254 257 259 260 262 264 266 271 274 273 272 268 267 271 276 280 285 287 288 289 290 293 292 289 290 290 286 283 278 277 277 277 277 276 274 275 274 276 279 274 270 276 280 283 287 290 290 290 288 288 290 291 290 290 292 294 294 294 295 295 294 295 296
224 224 224 226 227 227 228 228 229 230 232 234 235 237 239 241 242 243 245 246 248 251 253 255 257 259 262 263 264 268 270 269 268 265 264 268 273 277 281 283 284 283 284 288 289 285 282 282 284 285 283 281 280 279 279 277 275 275 275 277 281 279 274 276 281 284 288 291 290 290 290 290 290 291 291 291 292 294 295 295 294 294 293 293 293
224 224 224 225 226 227 227 229 230 230 232 233 235 236 238 239 241 242 243 244 248 251 253 254 255 257 260 261 262 265 266 266 264 261 260 265 270 273 277 279 279 277 278 283 285 282 279 279 282 284 285 285 285 283 283 282 278 277 277 276 279 282 280 279 281 284 288 290 290 291 291 290 290 290 290 290 291 292 294 294 294 293 293 292 292
223 224 224 225 226 226 227 228 229 230 231 233 234 236 237 238 239 241 242 244 248 250 251 252 254 256 258 259 259 261 262 262 259 255 258 263 266 270 274 275 275 274 274 277 279 278 277 277 278 280 280 283 285 284 284 284 282 282 281 278 278 281 284 283 283 284 286 289 289 290 291 291 290 290 289 290 291 292 293 293 293 294 292 291 292
222 223 224 225 225 226 227 228 229 229 231 232 233 235 236 237 238 240 242 244 247 249 250 251 252 254 256 256 256 256 258 259 255 252 256 261 263 268 272 272 273 273 271 271 273 274 274 273 274 276 277 280 282 283 283 283 284 285 286 285 284 283 285 286 285 285 287 288 289 290 292 292 291 290 290 291 292 292 293 293 293 294 293 292 293
222 223 224 225 225 226 227 228 228 229 230 231 232 234 235 236 237 239 242 244 245 247 248 249 250 253 254 253 251 252 255 255 251 249 253 257 261 266 269 270 272 271 269 269 269 270 272 272 273 274 275 276 277 280 282 282 284 285 286 287 288 287 288 289 288 288 288 289 290 291 292 292 292 291 291 291 292 292 293 293 292 293 294 293 292
222 222 223 224 225 226 226 227 227 228 229 230 231 233 234 235 237 239 241 243 244 245 246 247 249 251 251 249 247 250 253 252 249 247 249 254 259 264 267 269 270 269 267 267 267 267 270 272 274 275 274 274 275 276 279 281 282 284 284 285 287 288 290 291 292 292 291 291 293 293 292 293 293 292 292 292 293 293 294 295 292 292 295 295 293
222 222 223 223 224 225 226 227 227 227 228 229 230 232 233 234 236 238 240 242 243 244 244 245 247 248 248 245 245 249 251 249 246 245 247 252 256 262 267 267 267 268 266 266 266 266 268 271 273 275 275 276 277 276 277 279 280 281 283 284 286 288 289 291 293 294 293 292 294 295 295 294 293 293 293 293 294 294 293 295 294 293 296 297 296
221 221 222 222 223 224 225 226 227 227 228 229 230 231 232 234 236 238 240 241 242 242 242 243 244 245 244 242 243 248 249 245 244 244 246 249 253 259 265 265 265 266 265 264 266 266 268 271 272 274 276 277 278 279 279 279 279 281 283 285 287 288 289 290 290 291 291 291 292 293 295 295 293 293 294 294 295 294 293 294 296 296 297 298 298
220 220 221 221 222 223 224 225 226 227 227 228 229 231 233 234 235 237 239 240 240 240 241 241 242 242 240 239 242 247 246 243 241 242 245 247 251 256 261 263 263 264 263 262 264 266 268 270 272 274 277 278 279 280 281 280 280 281 282 284 287 288 289 290 290 289 289 291 291 292 294 295 293 292 293 294 295 295 295 297 299 297 296 297 299
218 219 219 220 220 221 222 224 225 225 226 227 228 230 232 233 234 235 236 237 237 238 239 240 240 238 236 237 241 245 244 240 239 241 243 245 247 252 257 260 261 261 260 261 263 265 268 270 272 275 277 279 280 281 282 282 282 282 283 284 287 289 290 291 291 290 290 290 291 292 293 295 294 293 293 294 295 296 297 299 299 296 295 296 298
217 218 219 219 219 220 221 223 224 224 225 226 227 229 231 231 232 233 233 234 234 235 236 238 237 235 234 237 241 242 240 238 238 240 241 242 244 250 255 257 259 259 259 260 262 265 268 271 274 275 276 278 281 283 283 283 284 284 284 285 287 288 289 289 290 292 292 291 292 293 293 294 294 294 295 296 296 297 297 297 297 296 295 296 298
216 218 219 219 219 219 221 223 224 223 223 225 226 228 229 229 229 230 231 231 231 233 234 234 232 232 234 237 240 239 236 236 237 238 239 240 242 248 253 256 257 258 258 259 262 265 268 271 274 275 276 279 282 284 284 285 286 286 285 286 287 288 288 289 291 292 292 292 293 294 294 293 294 295 296 297 297 297 297 297 297 297 296 296 298
216 217 219 219 219 220 221 222 222 222 222 223 225 226 226 226 227 227 228 228 229 230 232 230 229 230 234 237 240 237 233 235 237 237 237 238 240 246 252 255 255 256 258 258 260 264 267 271 275 276 277 279 282 285 286 286 288 289 288 287 288 289 289 291 292 292 292 292 293 294 294 294 295 297 297 297 297 296 296 297 297 298 298 298 298
215 216 217 217 217 218 220 220 220 221 221 222 224 224 224 224 224 224 225 226 228 228 228 228 228 230 234 237 238 234 231 234 236 235 236 237 239 245 252 256 256 257 258 259 260 263 267 271 275 276 277 280 283 285 287 287 288 289 289 288 288 288 291 292 292 292 292 294 295 295 296 296 297 297 297 297 296 295 295 295 296 298 300 300 301
212 213 214 215 216 217 218 219 219 220 221 222 222 222 222 223 223 223 224 225 226 226 225 226 228 232 235 237 235 231 230 233 235 235 236 237 238 243 251 256 257 257 256 258 260 263 267 273 275 276 278 280 283 285 287 287 287 287 289 289 288 288 291 293 293 294 294 295 295 296 297 297 298 298 298 298 296 294 294 294 295 297 299 300 301
210 211 213 214 215 216 217 217 218 219 220 220 220 221 221 222 222 223 224 224 224 223 223 225 229 233 235 235 233 230 230 233 235 235 236 236 237 242 249 255 256 256 256 258 261 263 268 274 276 277 279 282 285 287 288 288 286 286 287 289 289 289 292 294 295 295 295 295 295 296 297 298 298 299 299 298 297 295 294 293 293 295 297 299 300
209 210 211 213 214 214 215 216 216 217 218 219 219 220 221 221 222 223 223 222 222 221 223 226 230 233 234 232 230 228 229 233 235 235 234 235 236 241 248 253 255 255 256 259 263 265 268 272 274 276 279 283 287 289 289 289 287 286 286 288 289 290 292 293 294 294 295 295 296 296 297 297 298 298 298 298 297 297 296 295 293 293 295 297 298
208 209 211 212 213 214 214 215 216 217 219 219 219 219 220 220 221 221 221 220 220 221 224 228 231 233 232 229 227 227 228 232 234 234 234 235 237 240 247 251 253 254 255 259 263 267 269 270 272 275 280 284 288 291 291 291 289 287 286 287 288 290 292 292 292 292 293 295 295 295 296 297 297 298 298 297 296 297 299 299 297 294 294 295 296
207 209 210 211 212 213 214 215 217 218 219 219 220 220 219 219 219 219 218 219 220 223 226 229 232 232 230 227 226 226 228 230 233 234 234 236 237 240 245 249 250 252 255 260 264 268 268 269 272 276 280 285 288 291 292 292 291 289 288 288 287 288 290 291 292 292 293 294 295 296 297 298 298 298 297 295 295 296 299 300 300 298 296 295 295
206 208 210 211 212 213 214 215 217 218 219 220 220 219 218 217 217 217 218 220 222 225 228 231 231 230 227 225 225 226 228 230 233 233 234 235 237 240 244 247 248 251 255 260 264 266 268 271 274 278 282 286 290 292 293 293 293 292 291 289 287 287 289 290 292 294 294 295 296 296 297 298 298 297 295 294 295 296 298 299 299 298 297 296 296
205 207 209 210 212 213 214 215 217 218 219 219 217 216 216 216 216 218 220 223 225 228 230 231 230 227 225 225 225 227 229 232 234 234 233 233 236 239 243 246 248 251 254 258 262 266 269 273 276 280 284 288 290 292 293 294 294 294 293 291 289 288 289 290 292 294 295 295 296 296 297 297 296 296 295 295 295 296 297 298 298 296 296 297 297
203 206 208 210 212 214 216 217 217 217 217 216 215 216 216 217 219 221 224 226 228 230 231 231 229 227 226 226 227 228 231 235 236 234 232 233 234 238 242 244 246 250 253 255 259 264 268 272 276 280 284 287 289 291 292 293 295 296 295 293 291 290 290 290 291 293 295 295 295 295 296 295 294 295 296 295 295 295 296 296 296 296 296 296 296
204 207 210 212 214 215 216 216 215 215 214 213 214 215 216 219 222 224 226 229 230 231 231 229 227 227 228 229 230 231 233 236 237 234 232 233 236 239 242 243 245 248 251 253 258 263 267 271 274 279 283 286 288 289 290 292 295 297 296 295 293 293 292 292 292 293 294 294 294 294 294 294 293 293 294 294 294 294 295 295 295 295 296 296 296
207 210 212 213 213 213 213 213 213 213 213 213 213 214 216 220 224 226 229 230 231 231 231 229 228 229 230 231 231 232 233 236 238 234 232 233 236 239 241 243 245 247 249 252 257 262 266 269 273 278 283 286 288 289 290 291 294 297 297 296 295 294 293 292 293 293 293 293 293 292 292 293 293 293 294 294 294 294 294 294 295 295 295 295 295
208 210 212 211 211 211 212 213 212 213 213 213 214 216 217 219 223 227 230 230 230 230 231 230 230 231 231 230 230 231 233 236 237 235 233 234 236 238 240 243 245 246 247 252 257 261 264 267 272 277 281 285 287 288 288 290 292 295 296 296 295 295 294 293 293 294 293 292 291 291 291 292 293 295 296 296 295 294 294 294 294 295 295 294 294
207 209 210 209 209 210 212 212 213 213 214 215 216 218 219 221 223 226 228 229 229 231 232 232 231 231 230 229 229 232 234 236 237 236 235 235 236 238 241 243 244 245 247 251 256 261 264 267 272 276 280 283 285 286 286 288 291 293 294 294 294 295 295 295 295 294 294 292 291 290 290 291 293 295 296 295 294 294 294 294 294 294 294 294 294
207 208 208 208 210 211 212 213 215 216 217 218 219 220 222 223 223 224 225 228 230 232 233 234 234 232 230 230 230 233 235 237 238 237 236 235 236 238 240 243 244 245 248 252 256 260 264 267 271 277 281 283 284 285 286 288 291 292 293 293 293 294 296 296 296 295 294 292 291 290 290 291 291 292 293 293 292 293 293 293 293 293 293 294 295
209 210 210 211 214 216 217 217 218 219 221 222 222 223 224 225 225 225 227 230 231 232 233 234 235 235 233 232 233 234 236 238 238 236 236 236 237 237 239 241 243 245 248 251 255 259 263 267 272 277 280 283 284 285 286 289 291 292 294 294 294 294 295 296 296 296 294 292 290 290 291 292 292 292 292 292 292 292 292 292 292 292 292 294 295
211 213 215 217 219 220 221 221 221 223 224 225 226 227 227 227 227 229 231 232 232 232 233 233 234 235 235 235 235 235 236 236 236 236 236 235 235 235 237 240 241 243 247 251 255 259 263 268 272 276 279 282 284 286 288 289 291 293 294 294 293 294 296 296 296 295 294 293 291 291 292 293 293 292 292 292 292 292 292 292 291 291 291 293 295
214 216 218 221 223 224 224 224 224 225 226 227 228 229 229 229 230 231 232 232 233 233 233 233 233 233 234 235 235 235 236 237 237 237 237 234 234 236 239 240 241 244 247 251 255 259 264 268 273 276 279 282 284 286 288 289 291 292 293 294 294 295 296 296 295 294 294 294 293 293 293 293 292 292 292 292 292 292 292 291 291 291 292 293 294
217 219 221 223 225 226 226 225 225 226 227 228 230 231 231 231 232 232 233 233 233 234 234 234 234 234 234 235 235 236 237 238 238 238 236 234 235 238 240 241 243 246 248 251 255 259 264 269 273 277 279 281 284 286 287 288 289 291 292 292 293 295 296 296 295 294 294 294 294 294 293 292 292 292 293 293 293 293 292 292 292 292 293 295 296
220 221 222 224 225 226 227 227 227 227 228 229 230 232 233 233 234 234 234 233 234 235 236 236 236 236 235 235 235 235 238 240 239 237 234 233 234 238 240 241 243 246 249 252 255 260 265 270 274 277 279 281 284 286 287 287 289 290 291 291 292 293 295 295 295 294 294 294 294 294 293 292 292 293 294 295 295 294 293 293 293 293 294 296 298
223 224 224 226 227 228 229 229 230 231 232 232 233 234 235 235 235 235 235 235 234 236 237 237 237 237 236 235 235 236 238 239 238 236 234 232 232 235 239 241 243 246 249 252 256 261 266 271 274 277 279 281 283 285 287 287 288 289 290 291 292 292 292 293 294 294 295 295 294 294 293 293 293 294 295 296 296 296 295 295 295 296 297 298 299
230 229 230 230 230 231 232 232 233 234 236 237 239 239 239 238 237 235 235 235 236 236 237 238 238 237 236 235 235 237 238 238 236 236 234 231 230 234 239 242 244 247 250 254 258 262 267 271 274 276 279 281 282 284 286 288 288 287 289 290 292 291 291 291 292 293 294 294 294 293 293 293 294 294 295 296 297 297 297 297 297 297 298 298 299
236 234 234 234 233 234 234 235 236 238 239 240 242 243 242 241 239 237 236 236 236 237 237 237 237 237 236 235 235 237 238 238 237 235 232 229 230 234 239 242 246 249 252 256 259 263 268 271 273 276 278 281 283 284 286 287 288 287 288 289 290 291 291 291 292 292 292 293 293 292 291 292 293 294 295 296 297 298 298 298 298 299 299 299 299
240 238 237 236 236 236 237 239 240 241 242 242 243 244 244 242 241 240 238 237 237 237 237 236 236 237 237 236 236 237 239 239 236 231 228 228 231 235 239 243 247 251 254 257 260 264 268 271 273 276 278 280 282 283 285 287 287 288 289 290 291 292 292 292 292 292 291 291 291 290 290 291 292 293 295 296 297 297 297 298 299 299 300 300 300
243 242 240 238 238 239 239 241 242 243 243 243 244 244 244 243 242 241 239 238 237 237 237 237 237 237 237 236 236 237 238 236 231 228 227 229 233 237 241 246 250 253 255 258 262 265 269 271 274 276 278 279 280 282 284 285 285 286 287 289 291 292 292 291 292 292 291 290 288 288 290 291 291 293 294 295 296 297 297 298 299 300 300 300 300
244 243 241 240 240 240 241 242 243 244 245 246 245 246 246 245 244 244 242 240 239 238 238 238 239 238 235 234 234 234 233 230 227 227 229 231 234 238 243 247 252 255 257 260 263 267 270 272 274 276 277 278 280 282 283 284 284 284 286 288 290 292 292 292 292 292 291 288 286 287 289 291 292 293 295 295 296 297 297 298 299 300 300 301 302
245 244 243 241 240 241 242 242 243 244 246 247 247 247 248 247 247 247 245 243 241 239 238 237 237 236 233 232 231 230 228 225 224 227 229 231 235 239 244 249 253 256 258 261 265 269 271 273 274 275 276 277 279 280 281 282 282 284 286 288 290 292 292 292 293 292 290 287 285 287 289 291 292 294 295 295 296 297 297 298 299 300 300 301 302
245 244 243 241 240 239 239 240 240 241 242 244 245 246 245 244 244 244 242 239 238 237 234 232 232 233 232 231 229 227 225 224 225 227 229 232 237 242 247 250 254 257 260 263 267 270 271 271 272 274 276 277 277 277 278 279 281 283 285 287 289 291 291 291 292 292 289 287 286 287 289 290 292 294 295 294 295 297 298 299 300 301 301 300 299
240 240 241 242 244 244 243 243 242 240 239 240 241 241 240 240 240 239 236 232 228 227 226 228 230 231 230 228 226 224 222 223 225 227 230 234 240 245 249 252 255 258 261 264 267 268 269 270 271 273 276 276 276 276 277 278 280 284 286 288 290 291 290 290 290 290 288 286 285 286 288 290 292 295 296 296 295 297 299 300 300 301 300 298 297
243 245 244 244 245 244 244 244 243 240 239 239 238 237 236 236 236 233 229 225 222 222 225 227 228 227 224 223 221 221 221 224 228 232 235 239 243 248 251 255 258 260 262 264 266 267 268 270 273 275 276 276 275 275 277 278 279 283 286 289 290 290 290 290 290 290 289 287 286 286 288 290 291 293 295 296 297 297 298 299 299 299 298 296 295
253 256 255 252 249 246 244 242 241 240 240 240 240 238 235 234 233 230 226 224 225 228 230 230 227 224 223 223 223 224 226 229 233 237 241 244 248 250 253 257 260 261 262 264 265 267 269 272 275 277 276 275 275 276 277 278 280 282 285 287 288 289 288 288 289 290 289 288 287 287 289 291 292 292 293 294 295 296 296 297 297 297 296 295 294
260 258 256 254 252 249 246 244 243 243 242 241 240 239 237 236 236 234 232 231 232 233 233 233 232 230 229 229 229 231 233 235 238 241 244 248 250 252 255 258 261 261 261 263 266 268 271 274 276 276 276 276 276 277 278 279 281 282 283 285 287 288 288 287 287 288 288 288 288 288 288 290 292 293 293 293 294 294 295 296 297 296 296 295 294